Volver al catálogo

CZ-6A DEB

ActivoSSO
NORAD 54429·DEBRIS·🇨🇳 China

Lanzado Nov 11, 2022 desde Taiyuan Satellite Launch Center

Loading…

Próximos Pases (próximas 24 horas)

TLE

ActualizadoSource: Space-Track

Época: Sep 14, 2026, 08:16 UTC

1 54429U 22151FD  26257.34470671  .00000222  00000-0  20946-3 0  9999
2 54429  99.0610 225.4907 0165622 239.9558 118.5081 13.85530226193881

Sigue CZ-6A DEB en tiempo real con AllMySat

Download on the App Store